Weather reports worldwide

Advertisment
Ajaccio, France (7761): temperature & dewpoint: 10.09.2019 05:00:00 - 16.09.2019 05:00:00 (CEST)Ajaccio, France (7761): temperature 5cm: 10.09.2019 05:00:00 - 16.09.2019 05:00:00 (CEST)Ajaccio, France (7761): temperature -20cm & temperature -100cm: 10.09.2019 05:00:00 - 16.09.2019 05:00:00 (CEST)Ajaccio, France (7761): wind speed & gusts: 10.09.2019 05:00:00 - 16.09.2019 05:00:00 (CEST)Ajaccio, France (7761): wind direction: 10.09.2019 05:00:00 - 16.09.2019 05:00:00 (CEST)Ajaccio, France (7761): reduced air pressure: 10.09.2019 05:00:00 - 16.09.2019 05:00:00 (CEST)Ajaccio, France (7761): visibility: 10.09.2019 05:00:00 - 16.09.2019 05:00:00 (CEST)Ajaccio, France (7761): sunshine duration: 10.09.2019 05:00:00 - 16.09.2019 05:00:00 (CEST)Ajaccio, France (7761): precipitation: 10.09.2019 05:00:00 - 16.09.2019 05:00:00 (CEST)
Date & Time tt [°C] td [°C] tt 5cm [°C] tt -20cm [°C] tt -100cm [°C] ff [km/h] ff [kn] fx [km/h] fx [kn] dd ppp [hPa] vv [km] sd [min] rr [mm]
16.09.2019 05:00:00 19,5 12,7 18,8 28,0 26,9 12 6 18 10 NE 1019,8 50 0 0,0
16.09.2019 04:00:00 19,0 12,7 18,0 28,1 26,9 9 5 14 8 NE 1020,2 48 0 0,0
16.09.2019 03:00:00 18,6 12,3 18,1 28,3 26,9 8 4 14 7 ENE 1020,6 50 0 0,0
16.09.2019 02:00:00 19,1 12,1 18,3 28,3 26,9 9 5 13 7 NE 1020,9 45 0 0,0
16.09.2019 01:00:00 20,0 12,0 18,8 28,4 26,9 13 7 18 10 NE 1020,8 49 0 0,0
16.09.2019 00:00:00 19,5 12,7 18,8 28,4 26,9 11 6 16 9 NE 1021,1 47 0 0,0
15.09.2019 23:00:00 20,7 12,9 19,3 28,4 26,9 4 2 10 6 E 1021,2 39 0 0,0
15.09.2019 22:00:00 22,2 13,3 21,1 28,3 26,9 8 4 11 6 ENE 1021,3 42 0 0,0
15.09.2019 21:00:00 23,5 13,7 22,4 28,2 26,9 8 5 12 7 NE 1021,2 44 0 0,0
15.09.2019 20:00:00 24,7 16,4 23,6 28,0 26,9 8 4 9 5 NE 1020,8 34 0 0,0
15.09.2019 19:00:00 26,0 15,1 25,8 27,8 26,9 5 3 7 4 NE 1021,1 43 0 0,0
15.09.2019 18:00:00 26,2 15,0 27,2 27,5 26,9 4 2 16 9 SE 1021,7 49 0 0,0
15.09.2019 17:00:00 26,4 16,6 28,3 27,3 26,9 12 6 23 13 S 1022,2 43 2 0,0
15.09.2019 16:00:00 27,5 16,5 31,7 27,1 26,9 18 10 23 13 SW 1022,3 29 60 0,0
15.09.2019 15:00:00 28,9 16,1 34,0 26,9 26,9 14 7 27 15 SW 1022,5 20 60 0,0
15.09.2019 14:00:00 28,2 16,5 36,9 26,8 26,9 19 10 27 14 SW 1023,2 37 60 0,0
15.09.2019 13:00:00 28,4 15,3 36,9 26,9 26,9 15 8 35 19 SW 1023,6 42 60 0,0
15.09.2019 12:00:00 27,3 16,6 37,1 27,0 26,9 13 7 21 11 SW 1023,7 49 60 0,0
15.09.2019 11:00:00 27,0 12,6 33,2 27,1 26,9 8 5 15 8 SW 1024,0 55 60 0,0
15.09.2019 10:00:00 26,0 11,4 25,3 27,3 26,9 5 3 17 9 NNE 1023,7 59 60 0,0
15.09.2019 09:00:00 20,8 11,4 18,5 27,4 26,9 11 6 21 11 NNE 1024,0 60 60 0,0
15.09.2019 08:00:00 17,6 10,5 14,8 27,6 26,9 11 6 21 12 NE 1024,3 54 18 0,0
15.09.2019 07:00:00 15,4 10,4 14,3 27,8 26,9 13 7 21 12 NE 1024,1 51 0 0,0
15.09.2019 06:00:00 16,2 10,7 15,4 27,9 26,9 14 8 19 10 NE 1024,0 56 0 0,0
15.09.2019 05:00:00 16,1 11,3 15,4 28,1 26,9 13 7 21 11 NE 1023,8 49 0 0,0
15.09.2019 04:00:00 16,8 11,5 15,7 28,2 26,9 13 7 20 11 NE 1023,9 47 0 0,0
15.09.2019 03:00:00 17,2 12,1 16,2 28,3 26,9 13 7 18 10 NE 1024,0 43 0 0,0
15.09.2019 02:00:00 17,4 13,1 16,5 28,4 26,9 11 6 14 8 NE 1024,2 37 0 0,0
15.09.2019 01:00:00 18,6 13,2 17,5 28,5 26,9 7 4 18 10 ENE 1024,4 35 0 0,0
15.09.2019 00:00:00 19,0 14,0 17,8 28,5 27,0 6 4 14 7 ENE 1024,4 34 0 0,0
14.09.2019 23:00:00 20,5 14,4 19,4 28,5 26,9 6 3 16 8 NE 1024,2 31 0 0,0
14.09.2019 22:00:00 21,7 14,8 20,8 28,4 27,0 10 5 16 8 NE 1024,2 38 0 0,0
14.09.2019 21:00:00 22,8 14,9 22,0 28,3 26,9 8 4 11 6 NE 1024,4 43 0 0,0
14.09.2019 20:00:00 23,9 16,2 22,7 28,1 26,9 6 3 14 7 SE 1024,5 18 0 0,0
14.09.2019 19:00:00 26,1 20,2 26,0 27,9 26,9 7 4 15 8 S 1023,8 34 13 0,0
14.09.2019 18:00:00 26,0 18,9 27,9 27,7 26,9 9 5 15 8 WSW 1023,2 36 14 0,0
14.09.2019 17:00:00 26,6 18,2 28,0 27,4 26,9 9 5 23 12 SSW 1023,6 48 52 0,0
14.09.2019 16:00:00 27,8 16,1 28,8 27,3 26,9 17 9 33 18 SW 1024,7 48 17 0,0
14.09.2019 15:00:00 28,3 17,8 32,9 27,2 27,0 20 11 31 17 SSW 1024,5 32 60 0,0
14.09.2019 14:00:00 28,1 16,7 34,6 27,1 26,9 16 8 26 14 SW 1025,0 37 60 0,0
14.09.2019 13:00:00 28,0 16,3 35,6 27,2 26,9 15 8 27 15 SSW 1025,2 44 60 0,0
14.09.2019 12:00:00 27,0 15,7 34,5 27,3 26,9 15 8 22 12 SW 1025,3 50 60 0,0
14.09.2019 11:00:00 26,7 13,8 31,2 27,4 26,9 6 3 10 6 WSW 1025,4 50 60 0,0
14.09.2019 10:00:00 24,4 12,0 23,2 27,6 26,9 9 5 17 9 NNE 1025,9 60 60 0,0
14.09.2019 09:00:00 20,2 11,4 17,5 27,7 26,9 10 6 21 12 NE 1026,1 47 56 0,0
14.09.2019 08:00:00 16,8 10,6 15,6 27,9 27,0 12 6 20 11 NE 1026,3 48 7 0,0
14.09.2019 07:00:00 16,4 10,9 15,2 28,1 27,0 14 7 21 11 NE 1026,0 48 0 0,0
14.09.2019 06:00:00 16,6 10,9 15,7 28,3 27,0 14 8 22 12 NE 1025,8 43 0 0,0
14.09.2019 05:00:00 16,5 12,3 15,7 28,4 27,0 13 7 19 10 NE 1025,6 37 0 0,0
14.09.2019 04:00:00 17,1 12,8 16,1 28,5 27,0 11 6 19 10 NE 1025,0 31 0 0,0
14.09.2019 03:00:00 18,4 13,9 17,5 28,7 27,0 12 7 19 10 NE 1025,0 31 0 0,0
14.09.2019 02:00:00 18,5 14,8 17,7 28,7 27,0 11 6 18 10 NE 1025,3 26 0 0,0
14.09.2019 01:00:00 19,2 15,5 18,2 28,8 27,0 9 5 14 8 NE 1025,8 26 0 0,0
14.09.2019 00:00:00 20,1 15,7 19,0 28,8 27,0 10 6 14 7 NE 1026,1 25 0 0,0
13.09.2019 23:00:00 20,4 16,2 19,5 28,8 27,0 10 5 13 7 NE 1026,4 22 0 0,0
13.09.2019 22:00:00 22,3 17,0 20,4 28,7 27,0 4 2 9 5 NNE 1026,4 26 0 0,0
13.09.2019 21:00:00 23,3 17,1 22,2 28,5 27,0 7 4 10 5 ENE 1026,1 29 0 0,0
13.09.2019 20:00:00 24,9 17,4 23,4 28,3 27,0 4 2 19 10 W 1025,9 37 19 0,0
13.09.2019 19:00:00 27,2 17,1 26,8 28,0 27,0 6 4 22 12 NNW 1025,7 35 60 0,0
13.09.2019 18:00:00 28,6 16,8 30,1 27,7 27,0 10 5 24 13 SW 1025,9 43 60 0,0
13.09.2019 17:00:00 28,3 17,8 31,4 27,4 27,0 14 7 24 13 SW 1025,8 32 60 0,0
13.09.2019 16:00:00 28,3 17,2 34,4 27,2 27,0 13 7 25 13 SW 1025,8 32 60 0,0
13.09.2019 15:00:00 28,4 17,0 34,7 27,1 27,0 13 7 22 12 SW 1026,5 33 60 0,0
13.09.2019 14:00:00 28,0 16,6 36,6 27,0 27,0 14 8 27 14 SW 1027,1 32 60 0,0
13.09.2019 13:00:00 27,0 18,6 36,4 27,0 27,0 19 11 38 20 SW 1027,1 36 60 0,0
13.09.2019 12:00:00 26,7 16,9 36,0 27,2 27,0 14 8 37 20 SW 1026,9 49 60 0,0
13.09.2019 11:00:00 26,1 15,2 32,9 27,3 27,0 13 7 21 11 SW 1026,7 58 60 0,0
13.09.2019 10:00:00 25,9 14,4 27,2 27,5 27,0 6 3 10 5 SSE 1026,7 60 60 0,0
13.09.2019 09:00:00 21,0 11,9 18,9 27,6 27,0 5 3 17 9 NNE 1026,9 52 60 0,0
13.09.2019 08:00:00 17,5 11,3 15,1 27,8 27,0 11 6 18 10 NE 1026,8 20 32 0,0
13.09.2019 07:00:00 15,9 11,1 14,5 28,0 27,0 10 5 19 10 NE 1026,8 60 0 0,0
13.09.2019 06:00:00 16,3 11,4 15,0 28,2 27,0 11 6 16 9 NE 1027,0 60 0 0,0
13.09.2019 05:00:00 17,2 11,7 15,8 28,3 27,0 9 5 18 10 ENE 1026,9 60 0 0,0
13.09.2019 04:00:00 17,4 12,1 16,4 28,4 27,1 13 7 23 12 NE 1026,8 60 0 0,0
13.09.2019 03:00:00 17,7 12,6 16,9 28,5 27,0 13 7 22 12 NE 1027,2 54 0 0,0
13.09.2019 02:00:00 17,7 13,6 16,9 28,7 27,0 13 7 19 11 NE 1027,5 52 0 0,0
13.09.2019 01:00:00 18,7 13,8 17,8 28,7 27,0 9 5 17 9 NE 1027,3 48 0 0,0
13.09.2019 00:00:00 19,4 14,2 18,4 28,8 27,0 13 7 17 9 NE 1027,1 49 0 0,0
12.09.2019 23:00:00 20,0 14,4 18,9 28,7 27,1 11 6 16 8 NE 1027,1 54 0 0,0
12.09.2019 22:00:00 21,1 14,3 19,9 28,6 27,1 7 4 11 6 NE 1026,7 45 0 0,0
12.09.2019 21:00:00 23,2 14,7 21,6 28,4 27,0 4 2 8 4 SE 1026,3 53 0 0,0
12.09.2019 20:00:00 24,7 16,4 22,3 28,2 27,1 4 2 15 8 NE 1025,8 57 20 0,0
12.09.2019 19:00:00 26,9 15,9 26,7 27,9 27,1 11 6 16 9 S 1025,6 52 60 0,0
12.09.2019 18:00:00 27,9 17,4 29,6 27,6 27,1 12 6 22 12 SW 1025,6 33 60 0,0
12.09.2019 17:00:00 28,4 18,2 30,8 27,3 27,1 15 8 25 13 SSW 1025,6 30 60 0,0
12.09.2019 16:00:00 29,4 17,6 33,3 27,1 27,0 19 10 37 20 SW 1025,9 28 60 0,0
12.09.2019 15:00:00 29,2 17,1 35,1 26,9 27,1 19 11 30 16 SW 1026,1 30 60 0,0
12.09.2019 14:00:00 29,9 17,7 36,4 26,8 27,1 18 10 32 18 SSW 1026,4 20 60 0,0
12.09.2019 13:00:00 28,8 18,0 35,8 26,8 27,1 17 9 27 15 SSW 1026,7 46 60 0,0
12.09.2019 12:00:00 27,6 18,9 35,9 26,9 27,1 16 9 24 13 SW 1026,7 60 60 0,0
12.09.2019 11:00:00 29,0 12,8 32,5 27,1 27,1 4 2 13 7 NE 1026,5 60 60 0,0
12.09.2019 10:00:00 26,0 13,5 26,0 27,2 27,1 9 5 16 9 NNE 1026,1 60 60 0,0
12.09.2019 09:00:00 21,0 13,4 18,1 27,4 27,1 11 6 19 11 NE 1025,9 20 60 0,0
12.09.2019 08:00:00 16,6 12,3 15,2 27,6 27,1 9 5 14 8 NE 1025,3 52 33 0,0
12.09.2019 07:00:00 16,2 12,2 15,3 27,7 27,1 11 6 16 9 NE 1024,5 58 0 0,0
12.09.2019 06:00:00 16,9 12,4 15,6 27,9 27,1 11 6 21 11 NE 1023,6 55 0 0,0
12.09.2019 05:00:00 16,8 12,7 15,6 28,1 27,1 13 7 20 11 NE 1023,5 60 0 0,0
12.09.2019 04:00:00 16,5 12,8 15,5 28,2 27,1 12 6 18 10 NE 1023,3 53 0 0,0
12.09.2019 03:00:00 17,1 13,4 15,5 28,3 27,1 10 6 16 9 ENE 1023,1 59 0 0,0
12.09.2019 02:00:00 18,1 13,4 17,1 28,4 27,1 5 3 17 9 E 1023,3 54 0 0,0
12.09.2019 01:00:00 18,0 13,9 16,8 28,4 27,1 14 8 20 11 NE 1022,7 51 0 0,0
12.09.2019 00:00:00 19,6 14,8 18,6 28,5 27,1 7 4 11 6 ENE 1022,3 39 0 0,0
11.09.2019 23:00:00 20,3 15,1 18,7 28,4 27,1 4 2 11 6 ESE 1022,0 55 0 0,0
11.09.2019 22:00:00 22,0 16,5 20,5 28,3 27,1 11 6 18 10 NNE 1021,8 48 0 0,0
11.09.2019 21:00:00 22,9 17,1 21,5 28,2 27,1 8 5 12 7 NE 1021,8 46 0 0,0
11.09.2019 20:00:00 24,1 18,3 23,2 28,0 27,1 9 5 26 14 SSE 1021,3 40 1 0,0
11.09.2019 19:00:00 24,8 18,3 24,9 27,7 27,1 18 10 29 16 S 1020,5 29 58 0,0
11.09.2019 18:00:00 26,4 19,3 27,4 27,4 27,2 19 10 27 15 SSW 1019,8 31 60 0,0
11.09.2019 17:00:00 27,6 19,4 30,1 27,1 27,1 19 11 32 17 SSW 1019,4 26 60 0,0
11.09.2019 16:00:00 28,8 16,4 33,9 26,9 27,2 22 12 38 21 SW 1019,1 27 60 0,0
11.09.2019 15:00:00 29,3 16,1 35,2 26,7 27,1 20 11 31 17 SW 1019,0 20 60 0,0
11.09.2019 14:00:00 28,7 15,9 36,5 26,6 27,1 21 11 35 19 SW 1019,3 34 60 0,0
11.09.2019 13:00:00 28,1 18,5 36,7 26,6 27,2 22 12 31 17 S 1018,9 44 60 0,0
11.09.2019 12:00:00 27,2 17,7 36,7 26,7 27,1 14 8 22 12 SW 1018,4 53 60 0,0
11.09.2019 11:00:00 26,3 13,8 35,1 26,8 27,2 11 6 18 10 SW 1017,8 60 60 0,0
11.09.2019 10:00:00 26,3 12,4 25,3 26,9 27,2 7 4 13 7 SSW 1017,0 20 60 0,0
11.09.2019 09:00:00 21,0 11,6 19,7 27,1 27,2 8 5 21 11 NNE 1016,6 60 60 0,0
11.09.2019 08:00:00 18,1 11,6 15,8 27,2 27,2 7 4 16 9 NE 1016,1 59 31 0,0
11.09.2019 07:00:00 17,0 11,5 15,5 27,4 27,2 12 6 20 11 NE 1015,3 60 0 0,0
11.09.2019 06:00:00 17,1 11,8 16,2 27,5 27,2 14 7 21 11 NE 1015,2 60 0 0,0
11.09.2019 05:00:00 17,7 12,4 16,5 27,6 27,2 13 7 20 11 NE 1015,0 60 0 0,0
11.09.2019 04:00:00 17,7 13,0 16,8 27,7 27,2 10 5 14 8 NNE 1015,1 57 0 0,0
11.09.2019 03:00:00 18,4 13,5 17,7 27,9 27,2 9 5 14 8 NE 1014,7 60 0 0,0
11.09.2019 02:00:00 18,3 13,4 17,4 27,9 27,2 8 4 14 7 ENE 1014,5 60 0 0,0
11.09.2019 01:00:00 18,3 13,4 17,4 28,0 27,3 13 7 19 10 NNE 1013,5 59 0 0,0
11.09.2019 00:00:00 19,6 13,5 18,6 28,0 27,2 11 6 18 10 NNE 1013,4 59 0 0,0
10.09.2019 23:00:00 20,1 14,0 19,3 28,0 27,2 11 6 18 10 NE 1013,3 53 0 0,0
10.09.2019 22:00:00 20,7 14,8 19,6 28,0 27,3 11 6 13 7 NE 1013,3 54 0 0,0
10.09.2019 21:00:00 22,9 14,7 20,6 27,8 27,2 5 3 9 5 NE 1012,4 55 0 0,0
10.09.2019 20:00:00 24,3 14,4 23,0 27,7 27,3 6 3 23 12 ENE 1011,2 59 0 0,0
10.09.2019 19:00:00 25,7 14,5 25,6 27,5 27,2 13 7 29 15 NW 1011,0 54 36 0,0
10.09.2019 18:00:00 27,3 14,7 27,4 27,2 27,3 19 11 33 18 WNW 1010,6 34 54 0,0
10.09.2019 17:00:00 26,5 15,5 27,2 27,0 27,3 19 11 29 16 NW 1010,2 34 10 0,0
10.09.2019 16:00:00 27,8 14,4 28,6 26,7 27,2 15 8 34 18 WNW 1010,2 60 4 0,0
10.09.2019 15:00:00 28,7 16,6 33,4 26,5 27,3 22 12 34 18 WSW 1010,3 40 51 0,0
10.09.2019 14:00:00 30,9 12,8 37,5 26,5 27,3 18 10 36 19 S 1010,6 33 60 0,0
10.09.2019 13:00:00 29,8 11,8 35,8 26,5 27,3 18 10 32 17 S 1011,1 36 60 0,0
10.09.2019 12:00:00 27,0 13,4 32,2 26,5 27,3 13 7 22 12 W 1011,8 37 58 0,0
10.09.2019 11:00:00 26,5 12,2 27,5 26,6 27,3 11 6 24 13 W 1012,3 37 60 0,0
10.09.2019 10:00:00 22,1 12,1 22,4 26,7 27,3 7 4 19 10 NNE 1012,4 42 20 0,0
10.09.2019 09:00:00 20,5 10,9 17,9 26,9 27,3 5 3 19 10 N 1012,8 57 13 0,0
10.09.2019 08:00:00 16,9 11,2 15,4 27,1 27,3 12 6 18 10 NE 1013,2 60 4 0,0
10.09.2019 07:00:00 15,9 10,2 14,7 27,2 27,3 5 3 19 11 ENE 1012,9 60 0 0,0
10.09.2019 06:00:00 15,8 10,1 14,7 27,4 27,3 14 7 18 10 NNE 1013,5 60 0 0,0
10.09.2019 05:00:00 16,2 9,8 15,4 27,5 27,3 14 8 19 11 NE 1014,0 60 0 0,0

tt = temperature
td = dewpoint
tt 5cm = temperature 5cm
tt -20cm = temperature -20cm
tt -100cm = temperature -100cm
ff = wind speed
fx = gusts
dd = wind direction
ppp = reduced air pressure
vv = visibility
sd = sunshine duration
rr = precipitation

Next stations